This demonstration page uses our WeatherBlox Daily Observations layout. Learn more.

Left ArrowRight Arrow

Hourly Observations for February 28, 2020

Temp ( °F °C ) Dew Point ( °F °C ) Humidity (%) Winds ( mph kmh ) Pressure ( in mb ) Visibility ( mi km ) Precip ( " mm )
12:59 am 00:59 Clear 39 3.9 16 -8.9 39 39 NW 13 20 30.07 1018 10 16 0.00 0.00
1:59 am 01:59 Clear 38 3.3 16 -8.9 41 41 WNW 16 26 30.07 1018 10 16 0.00 0.00
2:59 am 02:59 Clear 38 3.3 17 -8.3 43 43 W 12 19 30.06 1018 10 16 0.00 0.00
3:59 am 03:59 Clear 37 2.8 17 -8.3 44 44 W 12 19 30.06 1018 10 16 0.00 0.00
4:59 am 04:59 Clear 36 2.2 18 -7.8 48 48 WSW 8 13 30.07 1018 10 16 0.00 0.00
5:59 am 05:59 Clear 34 1.1 19 -7.2 54 54 WSW 7 11 30.08 1019 10 16 0.00 0.00
6:59 am 06:59 Mostly Sunny 35 1.7 18 -7.8 50 50 WSW 7 11 30.08 1019 10 16 0.00 0.00
7:59 am 07:59 Mostly Sunny 38 3.3 20 -6.7 48 48 WSW 7 11 30.09 1019 10 16 0.00 0.00
8:59 am 08:59 Sunny 42 5.6 20 -6.7 41 41 WSW 10 17 30.07 1018 10 16 0.00 0.00
9:59 am 09:59 Mostly Sunny 45 7.2 20 -6.7 37 37 WSW 12 19 30.05 1018 10 16 0.00 0.00
10:59 am 10:59 Mostly Sunny 48 8.9 21 -6.1 34 34 WSW 9 15 30.03 1017 10 16 0.00 0.00
11:59 am 11:59 Mostly Sunny 50 10 21 -6.1 32 32 WSW 14 22 29.99 1016 10 16 0.00 0.00
12:59 pm 12:59 Sunny 51 10.6 21 -6.1 31 31 WSW 14 22 29.96 1014 10 16 0.00 0.00
1:59 pm 13:59 Partly Cloudy 53 11.7 22 -5.6 30 30 WSW 12 19 29.93 1014 10 16 0.00 0.00
2:59 pm 14:59 Mostly Cloudy 52 11.1 21 -6.1 30 30 W 15 24 29.92 1013 10 16 0.00 0.00
3:59 pm 15:59 Cloudy 52 11.1 22 -5.6 31 31 W 12 19 29.91 1013 10 16 0.00 0.00
4:59 pm 16:59 Mostly Cloudy 51 10.6 22 -5.6 32 32 WSW 13 20 29.91 1013 10 16 0.00 0.00
5:59 pm 17:59 Mostly Cloudy 50 10 23 -5 35 35 W 9 15 29.92 1013 10 16 0.00 0.00
6:59 pm 18:59 Mostly Cloudy 47 8.3 24 -4.4 41 41 SW 7 11 29.93 1014 10 16 0.00 0.00
7:59 pm 19:59 Cloudy 49 9.4 26 -3.3 41 41 WSW 8 13 29.95 1014 10 16 0.00 0.00
8:59 pm 20:59 Mostly Cloudy 48 8.9 26 -3.3 42 42 W 9 15 29.96 1015 10 16 0.00 0.00
9:59 pm 21:59 Mostly Cloudy 47 8.3 29 -1.7 50 50 W 15 24 29.96 1015 10 16 0.00 0.00
10:59 pm 22:59 Cloudy 47 8.3 31 -0.6 54 54 WSW 8 13 29.97 1015 10 16 0.00 0.00
11:59 pm 23:59 Cloudy 45 7.2 31 -0.6 58 58 WSW 10 17 29.96 1015 10 16 0.00 0.00

Powered by AerisWeather